London-Corbin, KY

10:15 PM EDT on April 23, 2017 (GMT -0400)
London-Corbin / McKee

Weather History for KLOZ - May, 2013

Change the Weather History Date:

Wednesday, May 15, 2013

  Actual Average Record
Temperature  
Mean Temperature 73 °F 64 °F  
Max Temperature 85 °F 76 °F 88 °F (1991)
Min Temperature 61 °F 53 °F 37 °F (1959)
Degree Days  
Heating Degree Days 0 3  
Month to date heating degree days 82 61  
Since 1 July heating degree days 4511 4162  
Cooling Degree Days 8 3  
Month to date cooling degree days 9 27  
Year to date cooling degree days 29 53  
Growing Degree Days 23 (Base 50)    
Moisture  
Dew Point 53 °F    
Average Humidity 52    
Maximum Humidity 72    
Minimum Humidity 31    
Precipitation  
Precipitation 0.00 in 0.18 in 2.04 in (1983)
Month to date precipitation 3.12 2.50  
Year to date precipitation 21.59  
Sea Level Pressure  
Sea Level Pressure 30.00 in    
Wind  
Wind Speed 8 mph (SW)    
Max Wind Speed 20 mph    
Max Gust Speed 26 mph    
Visibility 10 miles    
Events      
T = Trace of Precipitation, MM = Missing Value Source: NWS Daily Summary

Daily Weather History Graph

Daily Weather History Graph

Search for Another Location

Airport or City:

Trip Planner

Search our weather history database for the weather conditions in past years. The results will help you decide how hot, cold, wet, or windy it might be!

Date:

Astronomy

May. 15, 2013 Rise Set
Actual Time 6:27 AM EDT 8:37 PM EDT
Civil Twilight 5:58 AM EDT 9:07 PM EDT
Nautical Twilight 5:23 AM EDT 9:42 PM EDT
Astronomical Twilight 4:44 AM EDT 10:21 PM EDT
Moon 11:01 AM EDT (5/15) 12:24 AM EDT (5/15)
Length of Visible Light 15h 08m
Length of Day
14h 10m
Waxing Crescent, 26% of the Moon is Illuminated
May 15
Waxing Crescent
May 18
First Quarter
May 25
Full
May 31
Last Quarter
Jun 8
New

Hourly Weather History & Observations

Time (EDT) Temp. Heat Index Dew Point Humidity Pressure Visibility Wind Dir Wind Speed Gust Speed Precip Events Conditions
12:53 AM 66.0 °F - 54.0 °F 65% 30.01 in 10.0 mi SSW 5.8 mph - N/A   Clear
1:53 AM 64.0 °F - 54.0 °F 70% 30.01 in 10.0 mi SSW 5.8 mph - N/A   Clear
2:53 AM 64.9 °F - 54.0 °F 68% 29.99 in 10.0 mi SSW 5.8 mph - N/A   Clear
3:53 AM 64.9 °F - 54.0 °F 68% 29.99 in 10.0 mi SSW 5.8 mph - N/A   Clear
4:53 AM 64.0 °F - 54.0 °F 70% 29.99 in 10.0 mi SW 6.9 mph - N/A   Clear
5:53 AM 62.1 °F - 54.0 °F 75% 30.01 in 10.0 mi SSW 5.8 mph - N/A   Clear
6:53 AM 62.1 °F - 53.1 °F 72% 30.03 in 10.0 mi Calm Calm - N/A   Clear
7:53 AM 64.9 °F - 54.0 °F 68% 30.04 in 10.0 mi SSW 4.6 mph - N/A   Clear
8:53 AM 69.1 °F - 54.0 °F 58% 30.06 in 10.0 mi WSW 9.2 mph - N/A   Clear
9:53 AM 72.0 °F - 55.0 °F 55% 30.07 in 10.0 mi SW 8.1 mph - N/A   Clear
10:53 AM 75.9 °F - 53.1 °F 45% 30.06 in 10.0 mi WSW 12.7 mph 21.9 mph N/A   Clear
11:53 AM 78.1 °F - 53.1 °F 42% 30.06 in 10.0 mi WSW 9.2 mph 17.3 mph N/A   Clear
12:53 PM 80.1 °F 79.9 °F 53.1 °F 39% 30.04 in 10.0 mi WSW 11.5 mph 18.4 mph N/A   Clear
1:53 PM 82.0 °F - 51.1 °F 34% 30.02 in 10.0 mi West 13.8 mph - N/A   Clear
2:53 PM 84.0 °F - 51.1 °F 32% 30.00 in 10.0 mi WSW 13.8 mph - N/A   Clear
3:53 PM 84.0 °F - 51.1 °F 32% 29.99 in 10.0 mi West 15.0 mph 24.2 mph N/A   Clear
4:53 PM 84.0 °F - 51.1 °F 32% 29.97 in 10.0 mi WSW 11.5 mph - N/A   Clear
5:53 PM 84.0 °F - 50.0 °F 31% 29.96 in 10.0 mi SW 12.7 mph 21.9 mph N/A   Clear
6:53 PM 82.0 °F - 50.0 °F 33% 29.94 in 10.0 mi WSW 12.7 mph 20.7 mph N/A   Clear
7:53 PM 79.0 °F - 50.0 °F 36% 29.94 in 10.0 mi WSW 6.9 mph - N/A   Clear
8:53 PM 75.9 °F - 51.1 °F 42% 29.94 in 10.0 mi SW 4.6 mph - N/A   Clear
9:53 PM 73.0 °F - 52.0 °F 48% 29.96 in 10.0 mi WSW 4.6 mph - N/A   Clear
10:53 PM 70.0 °F - 52.0 °F 53% 29.98 in 10.0 mi SW 4.6 mph - N/A   Clear
11:53 PM 66.9 °F - 51.1 °F 57% 29.97 in 10.0 mi Calm Calm - N/A   Clear